N200CV KMSP-CYYT

Flight info

Callsign N200CV
Flight time N/A
Altitude 41000
Route GEP124015 VACAY MUSIT KETRU USBAM MIVAD
Aircraft C750/M-SBDE3FGHRWXY/S

Departure

Time N/A
Airport Minneapolis–Saint Paul International Airport / Wold–Chamberlain Field (KMSP)

Arrival

Time 2026-04-22 08:24
Airport St. John's International Airport (CYYT)
Time Latitude Longitude Altitude Speed Heading
2026-04-22 06:13 45.83633 -79.22406 41052 ft 560 kts 76°
2026-04-22 06:13 45.84306 -79.16903 41051 ft 560 kts 76°
2026-04-22 06:14 45.85647 -79.05881 41055 ft 562 kts 75°
2026-04-22 06:14 45.86756 -78.96685 41051 ft 562 kts 76°
2026-04-22 06:15 45.88305 -78.83747 41066 ft 563 kts 76°
2026-04-22 06:15 45.89618 -78.72660 41069 ft 563 kts 76°
2026-04-22 06:16 45.90913 -78.61647 41070 ft 563 kts 76°
2026-04-22 06:16 45.92205 -78.50556 41077 ft 563 kts 76°
2026-04-22 06:17 45.93489 -78.39436 41072 ft 565 kts 76°
2026-04-22 06:17 45.94764 -78.28294 41075 ft 565 kts 76°
2026-04-22 06:18 45.96062 -78.16858 41086 ft 565 kts 76°
2026-04-22 06:18 45.97315 -78.05701 41080 ft 565 kts 76°
2026-04-22 06:19 45.98559 -77.94534 41083 ft 566 kts 77°
2026-04-22 06:19 45.99792 -77.83351 41086 ft 566 kts 77°
2026-04-22 06:20 46.01016 -77.72163 41089 ft 566 kts 77°
2026-04-22 06:20 46.02227 -77.60977 41089 ft 566 kts 77°
2026-04-22 06:21 46.03421 -77.49847 41094 ft 566 kts 77°
2026-04-22 06:21 46.04610 -77.38652 41095 ft 566 kts 77°
2026-04-22 06:22 46.05789 -77.27448 41095 ft 566 kts 77°
2026-04-22 06:22 46.06958 -77.16227 41091 ft 566 kts 77°
2026-04-22 06:23 46.08115 -77.05016 41093 ft 566 kts 77°
2026-04-22 06:23 46.09261 -76.93796 41093 ft 566 kts 78°
2026-04-22 06:24 46.10961 -76.76947 41102 ft 566 kts 78°
2026-04-22 06:25 46.12079 -76.65722 41099 ft 565 kts 78°
2026-04-22 06:25 46.13178 -76.54580 41096 ft 565 kts 78°
2026-04-22 06:26 46.14274 -76.43341 41101 ft 565 kts 78°
2026-04-22 06:26 46.15358 -76.32112 41107 ft 565 kts 78°
2026-04-22 06:27 46.16427 -76.20925 41099 ft 563 kts 79°
2026-04-22 06:27 46.17486 -76.09731 41096 ft 563 kts 79°
2026-04-22 06:28 46.18534 -75.98520 41095 ft 564 kts 79°
2026-04-22 06:28 46.19572 -75.87306 41105 ft 563 kts 79°
2026-04-22 06:29 46.20595 -75.76112 41107 ft 563 kts 79°
2026-04-22 06:29 46.21104 -75.70509 41107 ft 563 kts 79°
2026-04-22 06:30 46.21851 -75.62226 41107 ft 564 kts 79°
2026-04-22 06:31 46.22857 -75.50959 40537 ft 569 kts 79°
2026-04-22 06:31 46.23357 -75.45294 40108 ft 568 kts 79°
2026-04-22 06:31 46.23855 -75.39627 39647 ft 569 kts 79°
2026-04-22 06:31 46.24351 -75.33960 39224 ft 570 kts 79°
2026-04-22 06:32 46.24846 -75.28275 38799 ft 571 kts 79°
2026-04-22 06:32 46.25338 -75.22576 38258 ft 573 kts 79°
2026-04-22 06:32 46.25829 -75.16850 37721 ft 575 kts 79°
2026-04-22 06:32 46.26321 -75.11102 37201 ft 577 kts 79°
2026-04-22 06:33 46.26811 -75.05327 36644 ft 580 kts 79°
2026-04-22 06:33 46.27303 -74.99518 35920 ft 585 kts 78°
2026-04-22 06:33 46.27792 -74.93673 35208 ft 587 kts 78°
2026-04-22 06:33 46.28279 -74.87811 34507 ft 589 kts 78°
2026-04-22 06:34 46.28767 -74.81920 33759 ft 592 kts 78°
2026-04-22 06:34 46.29255 -74.75998 33145 ft 591 kts 78°
2026-04-22 06:34 46.29734 -74.70116 33142 ft 590 kts 78°
2026-04-22 06:34 46.30201 -74.64308 33144 ft 575 kts 78°
2026-04-22 06:35 46.30670 -74.58535 33144 ft 583 kts 77°
2026-04-22 06:35 46.31621 -74.46742 33142 ft 594 kts 78°
2026-04-22 06:36 46.32552 -74.34791 33159 ft 599 kts 78°
2026-04-22 06:36 46.33487 -74.22884 33156 ft 599 kts 78°
2026-04-22 06:37 46.34400 -74.10891 33152 ft 600 kts 78°
2026-04-22 06:37 46.35313 -73.98878 33152 ft 600 kts 78°
2026-04-22 06:38 46.36206 -73.86861 33163 ft 600 kts 78°
2026-04-22 06:38 46.37091 -73.74838 33189 ft 600 kts 78°
2026-04-22 06:39 46.37959 -73.62841 33171 ft 599 kts 79°
2026-04-22 06:39 46.38816 -73.50837 33171 ft 599 kts 79°
2026-04-22 06:40 46.39658 -73.38834 33177 ft 599 kts 79°
2026-04-22 06:40 46.40491 -73.26824 33178 ft 599 kts 79°
2026-04-22 06:41 46.41308 -73.14811 33180 ft 599 kts 79°
2026-04-22 06:41 46.42117 -73.02784 33184 ft 599 kts 79°
2026-04-22 06:42 46.42903 -72.90837 33187 ft 599 kts 79°
2026-04-22 06:42 46.43685 -72.78819 33187 ft 597 kts 79°
2026-04-22 06:43 46.44453 -72.66803 33184 ft 598 kts 79°
2026-04-22 06:43 46.45210 -72.54785 33184 ft 598 kts 79°
2026-04-22 06:44 46.46888 -72.43149 33203 ft 587 kts 70°
2026-04-22 06:44 46.48867 -72.31675 33197 ft 586 kts 71°
2026-04-22 06:45 46.50758 -72.20168 33205 ft 586 kts 70°
2026-04-22 06:45 46.52706 -72.08677 33205 ft 586 kts 71°
2026-04-22 06:46 46.54576 -71.97217 33213 ft 587 kts 71°
2026-04-22 06:46 46.56486 -71.85711 33217 ft 584 kts 71°
2026-04-22 06:47 46.58347 -71.74233 33220 ft 582 kts 71°
2026-04-22 06:47 46.60214 -71.62776 33216 ft 583 kts 71°
2026-04-22 06:48 46.62058 -71.51293 33224 ft 583 kts 72°
2026-04-22 06:48 46.63894 -71.39830 33232 ft 581 kts 72°
2026-04-22 06:49 46.65702 -71.28445 33226 ft 581 kts 72°
2026-04-22 06:49 46.67508 -71.16987 33211 ft 578 kts 72°
2026-04-22 06:50 46.69295 -71.05585 33215 ft 578 kts 73°
2026-04-22 06:50 46.71071 -70.94151 33214 ft 576 kts 73°
2026-04-22 06:51 46.72536 -70.84685 33213 ft 577 kts 73°
2026-04-22 06:51 46.74290 -70.73257 33212 ft 577 kts 73°
2026-04-22 06:52 46.76032 -70.61832 33214 ft 577 kts 73°
2026-04-22 06:52 46.77758 -70.50417 33209 ft 574 kts 74°
2026-04-22 06:53 46.79468 -70.39042 33213 ft 574 kts 74°
2026-04-22 06:53 46.81167 -70.27650 33212 ft 574 kts 74°
2026-04-22 06:54 46.82857 -70.16239 33220 ft 575 kts 74°
2026-04-22 06:54 46.84534 -70.04829 33222 ft 575 kts 75°
2026-04-22 06:55 46.86202 -69.93400 33220 ft 575 kts 75°
2026-04-22 06:55 46.87843 -69.82062 33231 ft 573 kts 75°
2026-04-22 06:56 46.89495 -69.70575 33235 ft 574 kts 75°
2026-04-22 06:56 46.91113 -69.59230 33237 ft 574 kts 75°
2026-04-22 06:57 46.92731 -69.47802 33241 ft 572 kts 75°
2026-04-22 06:57 46.94334 -69.36396 33245 ft 572 kts 76°
2026-04-22 06:58 46.95926 -69.24971 33248 ft 573 kts 76°
2026-04-22 06:58 46.97508 -69.13541 33249 ft 573 kts 76°
2026-04-22 06:59 46.99077 -69.02114 33239 ft 570 kts 76°
2026-04-22 06:59 47.00627 -68.90731 33238 ft 570 kts 76°
2026-04-22 07:00 47.02167 -68.79329 33241 ft 570 kts 76°
2026-04-22 07:00 47.03697 -68.67919 33241 ft 570 kts 76°
2026-04-22 07:01 47.05207 -68.56569 33252 ft 569 kts 77°
2026-04-22 07:01 47.06708 -68.45187 33253 ft 569 kts 77°
2026-04-22 07:02 47.08199 -68.33799 33250 ft 569 kts 77°
2026-04-22 07:02 47.09679 -68.22389 33262 ft 569 kts 77°
2026-04-22 07:03 47.11148 -68.10982 33248 ft 569 kts 77°
2026-04-22 07:03 47.12604 -67.99573 33261 ft 569 kts 77°
2026-04-22 07:04 47.14051 -67.88148 33273 ft 568 kts 77°
2026-04-22 07:04 47.15481 -67.76753 33279 ft 567 kts 77°
2026-04-22 07:05 47.16862 -67.65670 33280 ft 567 kts 78°
2026-04-22 07:05 47.18270 -67.54264 33282 ft 567 kts 78°
2026-04-22 07:06 47.19665 -67.42866 33293 ft 567 kts 78°
2026-04-22 07:06 47.21026 -67.31651 33295 ft 567 kts 78°
2026-04-22 07:07 47.22398 -67.20244 33304 ft 565 kts 79°
2026-04-22 07:07 47.23754 -67.08874 33310 ft 564 kts 79°
2026-04-22 07:08 47.25089 -66.97586 33309 ft 563 kts 79°
2026-04-22 07:08 47.26419 -66.86221 33323 ft 563 kts 79°
2026-04-22 07:09 47.27740 -66.74857 33322 ft 563 kts 79°
2026-04-22 07:09 47.29049 -66.63474 33326 ft 563 kts 79°
2026-04-22 07:10 47.30347 -66.52095 33334 ft 561 kts 80°
2026-04-22 07:10 47.31627 -66.40761 33336 ft 561 kts 80°
2026-04-22 07:11 47.32897 -66.29420 33336 ft 561 kts 80°
2026-04-22 07:11 47.34151 -66.18116 33338 ft 561 kts 80°
2026-04-22 07:12 47.35398 -66.06758 33333 ft 560 kts 81°
2026-04-22 07:12 47.36631 -65.95424 33332 ft 559 kts 81°
2026-04-22 07:13 47.37855 -65.84082 33339 ft 559 kts 81°
2026-04-22 07:13 47.39063 -65.72757 33338 ft 558 kts 81°
2026-04-22 07:14 47.40261 -65.61431 33338 ft 559 kts 82°
2026-04-22 07:14 47.41438 -65.50181 33330 ft 556 kts 82°
2026-04-22 07:15 47.42612 -65.38862 33325 ft 557 kts 82°
2026-04-22 07:15 47.43772 -65.27553 33317 ft 557 kts 82°
2026-04-22 07:16 47.44924 -65.16229 33324 ft 555 kts 82°
2026-04-22 07:16 47.46056 -65.04961 33316 ft 554 kts 83°
2026-04-22 07:17 47.47178 -64.93691 33318 ft 554 kts 83°
2026-04-22 07:17 47.48289 -64.82424 33316 ft 554 kts 83°
2026-04-22 07:18 47.49389 -64.71145 33320 ft 554 kts 83°
2026-04-22 07:18 47.50477 -64.59867 33322 ft 554 kts 83°
2026-04-22 07:19 47.51554 -64.48591 33319 ft 553 kts 84°
2026-04-22 07:19 47.52609 -64.37409 33325 ft 551 kts 84°
2026-04-22 07:20 47.53659 -64.26178 33331 ft 551 kts 84°
2026-04-22 07:20 47.54698 -64.14941 33331 ft 551 kts 84°
2026-04-22 07:21 47.55726 -64.03697 33308 ft 550 kts 84°
2026-04-22 07:21 47.56737 -63.92513 33318 ft 548 kts 85°
2026-04-22 07:22 47.57738 -63.81313 33318 ft 548 kts 85°
2026-04-22 07:22 47.58726 -63.70139 33319 ft 546 kts 85°
2026-04-22 07:23 47.59694 -63.59053 33320 ft 546 kts 85°
2026-04-22 07:23 47.60660 -63.47879 33321 ft 546 kts 85°
2026-04-22 07:24 47.61615 -63.36700 33315 ft 546 kts 85°
2026-04-22 07:24 47.62558 -63.25522 33318 ft 546 kts 85°
2026-04-22 07:25 47.63225 -63.14320 33315 ft 545 kts 89°
2026-04-22 07:25 47.63743 -63.03113 33295 ft 542 kts 90°
2026-04-22 07:26 47.64208 -62.91966 33306 ft 541 kts 90°
2026-04-22 07:26 47.64679 -62.80889 33308 ft 542 kts 90°
2026-04-22 07:27 47.65135 -62.69737 33304 ft 541 kts 90°
2026-04-22 07:27 47.65581 -62.58578 33303 ft 542 kts 90°
2026-04-22 07:28 47.66228 -62.41876 33303 ft 540 kts 91°
2026-04-22 07:28 47.66649 -62.30740 33303 ft 540 kts 91°
2026-04-22 07:29 47.67052 -62.19684 33297 ft 540 kts 91°
2026-04-22 07:29 47.67450 -62.08551 33294 ft 540 kts 91°
2026-04-22 07:30 47.67835 -61.97460 33293 ft 537 kts 92°
2026-04-22 07:31 47.68537 -61.76340 33287 ft 537 kts 92°
2026-04-22 07:31 47.68889 -61.65256 33286 ft 537 kts 92°
2026-04-22 07:32 47.69232 -61.54174 33281 ft 535 kts 93°
2026-04-22 07:32 47.69560 -61.43233 33492 ft 533 kts 94°
2026-04-22 07:33 47.69877 -61.32249 33679 ft 533 kts 94°
2026-04-22 07:33 47.70033 -61.26749 33791 ft 533 kts 94°
2026-04-22 07:33 47.70186 -61.21238 33912 ft 533 kts 94°
2026-04-22 07:34 47.70336 -61.15736 34042 ft 534 kts 94°
2026-04-22 07:34 47.70484 -61.10232 34189 ft 534 kts 94°
2026-04-22 07:34 47.70629 -61.04731 34341 ft 532 kts 94°
2026-04-22 07:34 47.70772 -60.99260 34581 ft 530 kts 94°
2026-04-22 07:35 47.71044 -60.88283 34813 ft 532 kts 94°
2026-04-22 07:35 47.71180 -60.82794 34959 ft 532 kts 94°
2026-04-22 07:35 47.71312 -60.77305 35114 ft 532 kts 94°
2026-04-22 07:36 47.71441 -60.71845 35239 ft 526 kts 95°
2026-04-22 07:36 47.71567 -60.66401 35258 ft 528 kts 95°
2026-04-22 07:36 47.71807 -60.55487 35253 ft 528 kts 95°
2026-04-22 07:37 47.72041 -60.44592 35289 ft 529 kts 95°
2026-04-22 07:37 47.72150 -60.39211 35517 ft 528 kts 95°
2026-04-22 07:37 47.72261 -60.33757 35704 ft 528 kts 95°
2026-04-22 07:38 47.72369 -60.28298 35869 ft 529 kts 95°
2026-04-22 07:38 47.72474 -60.22854 36260 ft 523 kts 95°
2026-04-22 07:38 47.72580 -60.17518 37046 ft 513 kts 95°
2026-04-22 07:38 47.72674 -60.12252 37611 ft 506 kts 95°
2026-04-22 07:39 47.72761 -60.07016 37920 ft 506 kts 95°
2026-04-22 07:39 47.72850 -60.01795 38251 ft 506 kts 95°
2026-04-22 07:39 47.72942 -59.96584 38871 ft 497 kts 95°
2026-04-22 07:39 47.73036 -59.91556 39915 ft 476 kts 95°
2026-04-22 07:40 47.73113 -59.86727 40708 ft 463 kts 95°
2026-04-22 07:40 47.73174 -59.81939 41052 ft 464 kts 95°
2026-04-22 07:40 47.73241 -59.77144 41457 ft 465 kts 94°
2026-04-22 07:40 47.73319 -59.72397 41862 ft 465 kts 94°
2026-04-22 07:41 47.73393 -59.67599 42257 ft 465 kts 94°
2026-04-22 07:41 47.73456 -59.62792 42656 ft 465 kts 94°
2026-04-22 07:41 47.73518 -59.57986 43011 ft 466 kts 94°
2026-04-22 07:41 47.73583 -59.53172 43411 ft 466 kts 94°
2026-04-22 07:42 47.73646 -59.48353 43782 ft 467 kts 94°
2026-04-22 07:42 47.73704 -59.43534 44152 ft 467 kts 94°
2026-04-22 07:42 47.73760 -59.38698 44518 ft 468 kts 94°
2026-04-22 07:42 47.73816 -59.33862 44878 ft 468 kts 93°
2026-04-22 07:43 47.73870 -59.29019 45201 ft 469 kts 93°
2026-04-22 07:43 47.73921 -59.24177 45540 ft 469 kts 94°
2026-04-22 07:43 47.73970 -59.19341 45866 ft 469 kts 94°
2026-04-22 07:43 47.74018 -59.14498 46177 ft 469 kts 94°
2026-04-22 07:44 47.74063 -59.09663 46511 ft 468 kts 94°
2026-04-22 07:44 47.74106 -59.04896 46772 ft 467 kts 94°
2026-04-22 07:44 47.74146 -59.00072 47051 ft 467 kts 94°
2026-04-22 07:44 47.74185 -58.95246 47314 ft 467 kts 94°
2026-04-22 07:45 47.74222 -58.90426 47567 ft 467 kts 94°
2026-04-22 07:45 47.74257 -58.85600 47788 ft 467 kts 94°
2026-04-22 07:45 47.74290 -58.80781 47925 ft 467 kts 94°
2026-04-22 07:45 47.74321 -58.75958 48013 ft 467 kts 94°
2026-04-22 07:46 47.74350 -58.71138 48119 ft 467 kts 94°
2026-04-22 07:46 47.74377 -58.66317 48224 ft 467 kts 94°
2026-04-22 07:46 47.74402 -58.61485 48331 ft 467 kts 94°
2026-04-22 07:46 47.74424 -58.56659 48434 ft 467 kts 94°
2026-04-22 07:47 47.74466 -58.47074 49125 ft 450 kts 94°
2026-04-22 07:47 47.74492 -58.37838 49183 ft 449 kts 94°
2026-04-22 07:48 47.74517 -58.28510 49188 ft 453 kts 94°
2026-04-22 07:48 47.74532 -58.19156 49197 ft 457 kts 94°
2026-04-22 07:49 47.74540 -58.09661 49152 ft 462 kts 94°
2026-04-22 07:49 47.74541 -58.00086 49198 ft 465 kts 94°
2026-04-22 07:50 47.74533 -57.90437 49186 ft 469 kts 94°
2026-04-22 07:50 47.74517 -57.80709 49185 ft 473 kts 95°
2026-04-22 07:51 47.74492 -57.70898 49168 ft 476 kts 95°
2026-04-22 07:51 47.74459 -57.61008 49157 ft 480 kts 95°
2026-04-22 07:52 47.74417 -57.51066 49163 ft 482 kts 95°
2026-04-22 07:52 47.74375 -57.42770 49168 ft 484 kts 95°
2026-04-22 07:53 47.74315 -57.32323 49165 ft 487 kts 95°
2026-04-22 07:53 47.74247 -57.22224 49158 ft 490 kts 95°
2026-04-22 07:54 47.74169 -57.12144 49156 ft 493 kts 95°
2026-04-22 07:54 47.74085 -57.01947 49147 ft 494 kts 95°
2026-04-22 07:55 47.73987 -56.91701 49143 ft 497 kts 95°
2026-04-22 07:55 47.73883 -56.81417 49125 ft 499 kts 95°
2026-04-22 07:56 47.73766 -56.71081 49101 ft 500 kts 95°
2026-04-22 07:56 47.73642 -56.60708 48609 ft 510 kts 95°
2026-04-22 07:57 47.73571 -56.55400 47499 ft 515 kts 95°
2026-04-22 07:57 47.73504 -56.50076 46448 ft 514 kts 95°
2026-04-22 07:57 47.73435 -56.44776 45410 ft 511 kts 95°
2026-04-22 07:57 47.73360 -56.39570 44353 ft 508 kts 95°
2026-04-22 07:58 47.73282 -56.34351 43258 ft 504 kts 96°
2026-04-22 07:58 47.73206 -56.29164 42201 ft 499 kts 96°
2026-04-22 07:58 47.73128 -56.24035 41207 ft 494 kts 96°
2026-04-22 07:58 47.73047 -56.18959 40260 ft 489 kts 97°
2026-04-22 07:59 47.72964 -56.13923 39350 ft 487 kts 97°
2026-04-22 07:59 47.72877 -56.08899 38350 ft 486 kts 98°
2026-04-22 07:59 47.72791 -56.03883 37273 ft 485 kts 99°
2026-04-22 07:59 47.72705 -55.98886 36248 ft 483 kts 100°
2026-04-22 08:00 47.72616 -55.93912 35232 ft 480 kts 101°
2026-04-22 08:00 47.72524 -55.88975 34278 ft 477 kts 102°
2026-04-22 08:00 47.72429 -55.84060 33237 ft 476 kts 102°
2026-04-22 08:00 47.72332 -55.79204 32198 ft 475 kts 102°
2026-04-22 08:01 47.72246 -55.74383 31167 ft 459 kts 102°
2026-04-22 08:01 47.72160 -55.69712 30163 ft 447 kts 102°
2026-04-22 08:01 47.72055 -55.65129 29037 ft 443 kts 102°
2026-04-22 08:01 47.71943 -55.60533 27895 ft 448 kts 101°
2026-04-22 08:02 47.71842 -55.55866 26850 ft 455 kts 101°
2026-04-22 08:02 47.71750 -55.51148 25841 ft 459 kts 100°
2026-04-22 08:02 47.71647 -55.46386 24881 ft 464 kts 100°
2026-04-22 08:02 47.71532 -55.41581 23973 ft 467 kts 100°
2026-04-22 08:03 47.71420 -55.36756 23450 ft 468 kts 99°
2026-04-22 08:03 47.71311 -55.31915 23085 ft 470 kts 99°
2026-04-22 08:03 47.71198 -55.27079 23031 ft 467 kts 99°
2026-04-22 08:03 47.71077 -55.22241 23029 ft 469 kts 100°
2026-04-22 08:04 47.70954 -55.17396 23029 ft 470 kts 99°
2026-04-22 08:04 47.70833 -55.12544 22993 ft 471 kts 99°
2026-04-22 08:04 47.70712 -55.07688 23028 ft 471 kts 99°
2026-04-22 08:04 47.70583 -55.02812 23032 ft 473 kts 99°
2026-04-22 08:05 47.70453 -54.97930 23035 ft 474 kts 99°
2026-04-22 08:05 47.70322 -54.93043 23035 ft 474 kts 99°
2026-04-22 08:05 47.70190 -54.88161 23038 ft 474 kts 99°
2026-04-22 08:05 47.70054 -54.83264 23039 ft 474 kts 99°
2026-04-22 08:06 47.69916 -54.78380 23041 ft 474 kts 99°
2026-04-22 08:06 47.69776 -54.73499 23036 ft 474 kts 99°
2026-04-22 08:06 47.69637 -54.68623 23035 ft 462 kts 99°
2026-04-22 08:06 47.69510 -54.63951 22957 ft 450 kts 100°
2026-04-22 08:07 47.69414 -54.60886 22923 ft 449 kts 101°
2026-04-22 08:07 47.69213 -54.54740 22665 ft 451 kts 101°
2026-04-22 08:07 47.69077 -54.50117 22071 ft 445 kts 100°
2026-04-22 08:07 47.68944 -54.45546 21487 ft 441 kts 100°
2026-04-22 08:08 47.68850 -54.42538 21103 ft 439 kts 100°
2026-04-22 08:08 47.68701 -54.38033 20527 ft 435 kts 101°
2026-04-22 08:08 47.68555 -54.33564 19950 ft 432 kts 100°
2026-04-22 08:08 47.68413 -54.29119 19380 ft 429 kts 100°
2026-04-22 08:09 47.68270 -54.24705 18819 ft 426 kts 100°
2026-04-22 08:09 47.68124 -54.20326 18248 ft 423 kts 100°
2026-04-22 08:09 47.67977 -54.15989 17665 ft 419 kts 100°
2026-04-22 08:09 47.67831 -54.11693 17103 ft 416 kts 100°
2026-04-22 08:10 47.67684 -54.07422 16561 ft 412 kts 100°
2026-04-22 08:10 47.67538 -54.03195 16025 ft 408 kts 100°
2026-04-22 08:10 47.67392 -53.99016 15508 ft 403 kts 100°
2026-04-22 08:10 47.67244 -53.94878 14993 ft 400 kts 101°
2026-04-22 08:11 47.67097 -53.90781 14471 ft 396 kts 101°
2026-04-22 08:11 47.66951 -53.86726 13950 ft 392 kts 101°
2026-04-22 08:11 47.66804 -53.82708 13404 ft 388 kts 101°
2026-04-22 08:11 47.66658 -53.78773 12898 ft 385 kts 101°
2026-04-22 08:12 47.66511 -53.74821 12387 ft 381 kts 101°
2026-04-22 08:12 47.66363 -53.70903 11884 ft 378 kts 101°
2026-04-22 08:12 47.66216 -53.67023 11390 ft 375 kts 101°
2026-04-22 08:12 47.65924 -53.63229 10868 ft 365 kts 108°
2026-04-22 08:13 47.65193 -53.59693 10362 ft 355 kts 117°
2026-04-22 08:13 47.64279 -53.56341 9874 ft 341 kts 118°
2026-04-22 08:13 47.63450 -53.53203 9324 ft 314 kts 115°
2026-04-22 08:13 47.63139 -53.50053 8726 ft 304 kts 99°
2026-04-22 08:14 47.63143 -53.47002 8233 ft 288 kts 95°
2026-04-22 08:14 47.63184 -53.44108 7759 ft 274 kts 95°
2026-04-22 08:14 47.63208 -53.41339 7289 ft 263 kts 95°
2026-04-22 08:14 47.63210 -53.38676 6801 ft 256 kts 95°
2026-04-22 08:15 47.63182 -53.36071 6312 ft 250 kts 95°
2026-04-22 08:15 47.63122 -53.33512 5809 ft 246 kts 94°
2026-04-22 08:15 47.63028 -53.31039 5328 ft 242 kts 94°
2026-04-22 08:15 47.62897 -53.28575 4848 ft 236 kts 94°
2026-04-22 08:16 47.62728 -53.26181 4346 ft 231 kts 94°
2026-04-22 08:16 47.62520 -53.23838 3849 ft 227 kts 94°
2026-04-22 08:16 47.62272 -53.21540 3374 ft 225 kts 95°
2026-04-22 08:16 47.61984 -53.19271 2907 ft 222 kts 96°
2026-04-22 08:17 47.61658 -53.17042 2428 ft 220 kts 96°
2026-04-22 08:17 47.61292 -53.14843 1983 ft 218 kts 97°
2026-04-22 08:17 47.60894 -53.12785 2011 ft 200 kts 99°
2026-04-22 08:17 47.60464 -53.10841 2013 ft 198 kts 101°
2026-04-22 08:18 47.60084 -53.08912 1997 ft 191 kts 91°
2026-04-22 08:18 47.60098 -53.06996 2000 ft 183 kts 72°
2026-04-22 08:18 47.60544 -53.05272 2017 ft 178 kts 59°
2026-04-22 08:18 47.60981 -53.03565 2012 ft 182 kts 68°
2026-04-22 08:19 47.61165 -53.01679 2021 ft 186 kts 78°
2026-04-22 08:19 47.61264 -52.99791 1923 ft 181 kts 78°
2026-04-22 08:19 47.61361 -52.97859 1479 ft 196 kts 78°
2026-04-22 08:19 47.61456 -52.95912 1463 ft 186 kts 79°
2026-04-22 08:20 47.61548 -52.94009 1481 ft 187 kts 78°
2026-04-22 08:20 47.61641 -52.92079 1472 ft 182 kts 79°
2026-04-22 08:20 47.61716 -52.90331 1460 ft 158 kts 78°
2026-04-22 08:20 47.61795 -52.88821 1446 ft 137 kts 77°
2026-04-22 08:21 47.61853 -52.87526 1426 ft 117 kts 75°
2026-04-22 08:21 47.61919 -52.86336 1466 ft 117 kts 75°
2026-04-22 08:21 47.61975 -52.85140 1434 ft 115 kts 76°
2026-04-22 08:21 47.62034 -52.83949 1443 ft 118 kts 75°
2026-04-22 08:22 47.62099 -52.82709 1279 ft 123 kts 77°
2026-04-22 08:22 47.62157 -52.81448 1073 ft 122 kts 78°
2026-04-22 08:22 47.62212 -52.80216 915 ft 118 kts 77°
2026-04-22 08:22 47.62271 -52.78989 747 ft 118 kts 77°
2026-04-22 08:23 47.62354 -52.77786 636 ft 116 kts 81°
2026-04-22 08:23 47.62415 -52.76571 520 ft 116 kts 79°
2026-04-22 08:23 47.62452 -52.75492 482 ft 91 kts 86°
2026-04-22 08:23 47.62478 -52.74785 480 ft 51 kts 86°
2026-04-22 08:24 47.62497 -52.74352 478 ft 38 kts 86°
2026-04-22 08:24 47.62511 -52.73966 471 ft 27 kts 100°
2026-04-22 08:24 47.62469 -52.73918 469 ft 6 kts 189°
2026-04-22 08:24 47.62423 -52.73927 470 ft 8 kts 185°
2026-04-22 08:25 47.62363 -52.73926 471 ft 10 kts 171°
2026-04-22 08:25 47.62265 -52.73912 472 ft 18 kts 178°
2026-04-22 08:25 47.62102 -52.73899 471 ft 31 kts 177°
2026-04-22 08:25 47.61854 -52.73874 474 ft 35 kts 174°
2026-04-22 08:26 47.61687 -52.73860 474 ft 13 kts 175°
2026-04-22 08:26 47.61585 -52.73849 474 ft 20 kts 176°
2026-04-22 08:26 47.61407 -52.73832 471 ft 25 kts 176°
2026-04-22 08:26 47.61273 -52.73818 470 ft 0 kts 176°
2026-04-22 08:27 47.61269 -52.73822 470 ft 1 kts 213°
2026-04-22 08:27 47.61265 -52.73835 470 ft 2 kts 259°
2026-04-22 08:27 47.61268 -52.73865 471 ft 4 kts 273°
2026-04-22 08:27 47.61277 -52.73939 471 ft 9 kts 287°
2026-04-22 08:28 47.61278 -52.74019 471 ft 6 kts 262°
2026-04-22 08:28 47.61275 -52.74067 471 ft 4 kts 268°
2026-04-22 08:28 47.61275 -52.74075 472 ft 0 kts 268°